Location: Lansingburgh
(42.7845°N, 73.6696°W)
Time: 00:11:25
(UTC+00:00)

BlueWalker 3 - Visible Passes

Search period start: 06 October 2024 00:00
Search period end: 16 October 2024 00:00
Orbit: 473 x 485 km, 53.2° (Epoch: 05 October)

Date Brightness Start Highest point End Pass type
(mag) Time Alt. Az. Time Alt. Az. Time Alt. Az.
06 Oct 1.8 09:16:40 52° SSW 09:17:26 75° SE 09:21:08 10° NE visible
07 Oct 2.6 08:49:56 51° E 08:49:56 51° E 08:52:55 10° ENE visible
07 Oct 3.2 10:24:19 10° W 10:27:29 26° NNW 10:30:40 10° NE visible
08 Oct 4.2 08:23:04 23° ENE 08:23:04 23° ENE 08:24:39 10° ENE visible
08 Oct 3.1 09:57:17 18° WNW 09:59:12 28° NNW 10:02:27 10° NE visible
09 Oct 5.2 07:56:06 12° ENE 07:56:06 12° ENE 07:56:21 10° ENE visible
09 Oct 2.9 09:30:18 28° NW 09:30:52 30° NNW 09:34:11 10° NE visible
10 Oct 3.2 09:03:14 29° N 09:03:14 29° N 09:05:53 10° NE visible
11 Oct 4.1 08:36:04 20° NNE 08:36:04 20° NNE 08:37:32 10° NE visible
11 Oct 3.9 10:10:27 10° NW 10:12:55 17° N 10:15:23 10° NE visible
12 Oct 5.0 08:08:51 12° NE 08:08:51 12° NE 08:09:09 10° NE visible
12 Oct 3.9 09:43:02 14° NW 09:44:26 17° N 09:46:56 10° NE visible
13 Oct 3.9 09:15:45 17° NNW 09:15:55 17° N 09:18:28 10° NE visible
14 Oct 4.3 08:48:25 16° NNE 08:48:25 16° NNE 08:49:58 10° NE visible
14 Oct 4.0 10:23:44 10° NW 10:26:23 18° NNE 10:29:03 10° ENE visible
15 Oct 4.9 08:21:04 12° NNE 08:21:04 12° NNE 08:21:26 10° NE visible
15 Oct 4.0 09:55:14 10° NW 09:57:47 18° N 10:00:23 10° NE visible
